STARLINK-11588, 63319

Orbit data source: Space-Track

STARLINK-11588, 63319 is a payload satellite owned by SpaceX/Seattle (US) in LEO that was launched on Tue, 18 Mar 2025 UTC via an FALCON 9 launch vehicle from the Air Force Eastern Test Range (AFETR). Payload-class satellites include a variety of spacecraft equipped with specific instruments for various scientific and technological missions. These include communications satellites like Starlink; space stations such as the ISS; scientific satellites like the Hubble; Earth observation satellites from companies like Planet Labs, Umbra, and HawkEye 360; GPS; miniature CubeSats for education and research; and military/defense satellites.

Loading next visibility...
Identifier
63319, 2025-057N
Orbit
LEO
Country
Flag of USUS
Related business
Manufacturer
SpaceX/Seattle
Mission
Operational Commercial Communications
Bus & Motor
STARLINK V2MD, Unknown motor
Mass
960 kg wet, ~910 kg dry
Launch date (UTC)
2025-03-18 (6 months ago)
Launch vehicle
FALCON 9
Launch site
Air Force Eastern Test Range (AFETR)
Object type
Payload
Rocket body
Debris
Shape & HBR
Box + 2 Pan, 14.5 m
Radar Cross Section
36.964 m², Large (>1 m²)

Expand to show TLE details & history
Last TLE update: 6 hours ago

TLE from 6 hours ago
0 STARLINK-11588
1 63319U 25057N   25258.23114581  .00331796  00000-0  24776-2 0  9995
2 63319  43.0001 242.0355 0001372 262.1514  97.9198 15.70933977 29585
Epoch: 2025-09-15T05:32Z
TLE epoch observation values (Epoch: 2025-09-15T05:32:50.997Z)
Latitude
-0.00004°
Longitude
164.3842°
Altitude
356.125 km
Speed
7.697 km/s
True Right ascension
16h 08m 08s
True Declination
0° 00' 00"
Sunlit
Object was in daylight at epoch
Visualization orbit readout
Latitude
Unknown
Longitude
Unknown
Altitude
Unknown
Speed
Unknown
Apparent Right ascension
Unknown
Apparent Declination
Unknown
Sunlit
N/A
Visualization observer readout
Local Sidereal Time
04:15:27
Azimuth
Unknown
Elevation
Unknown
Doppler factor
Unknown
Orbital elements
Apogee altitude
359.132 km
Perigee altitude
357.284 km
Semi-major axis
6,736.345 km
Eccentricity
0.00014
Inclination
43.0001°
RAAN
242.0355°
Arg. of periapsis
262.1514°
True anomaly
97.93537°
Mean anomaly
97.9198°
Eccentric anomaly
97.92759°
Mean motion
3.92561 °/min
Orbital period
91.71 mins
BSTAR
0.0024776
Loading maneuver chart data...
Computing Atmospheric mass density...
Loading historical data...
Loading historical data...
Loading historical data...
Loading historical data...
Loading historical data...
Loading historical data...
Loading historical data...

Documentation

Showing up to 5 results
|